Back to catalog

STARLINK-31143

AliveCommunicationsVLEO
NORAD 58770·PAYLOAD·🇺🇸 United States

Launched Jan 14, 2024 from Vandenberg Space Force Base

Loading…

Next Passes (next 24 hours)

TLE

FreshSource: CelesTrak SupGP

Epoch: Sep 14, 2026, 13:34 UTC

1 58770C 24011F   26257.56576389 -.00018298  00000+0 -54085-3 0  2577
2 58770  53.1580 213.6423 0001350  85.6858  17.8853 15.34385675    11

Track STARLINK-31143 in real time with AllMySat

Download on the App Store